[[{"header":{"parameterUnit":"m.s-1","parameterCategory":2,"la1":30.2991,"la2":30.254,"lo1":-89.0895,"lo2":-89.0444,"dy":0.0017,"dx":0.0017,"nx":28,"ny":28,"refTime":"2025-04-09T03:00:00:Z","depth":"0","parameterNumber":2,"parameterNumberName":"U-component_of_CURRENTS"},"data":[0,0,0,0,0,0,0,0,0,0,0,0,0,0,0,0,0,0,0,0,0,0,0,0,0,0,0,0,0,0,0,0,0,0,0,0,0,0,0,0,0,0,0,0,0,0,0,0,0,0,0,0,0,0,0,0,0,0,0.2869,0.2868,0,0.2827,0.2826,0.2826,0.2805,0.2805,0.2805,0.2805,0.2777,0.2777,0.2776,0,0,0,0,0,0,0,0,0,0,0,0,0,0.2903,0.2903,0.2869,0.2868,0.2867,0.2827,0.2826,0.2826,0.2805,0.2805,0.2805,0.2805,0.2778,0.2777,0.2776,0,0,0,0,0,0,0,0,0,0,0,0,0,0.2878,0.2903,0.2869,0.2851,0.2849,0.2827,0.2826,0.2826,0.2805,0.2805,0.2805,0.2805,0.2778,0.2777,0.2776,0.2773,0,0,0.2773,0.2773,0,0,0,0,0,0,0,0,0.288,0.2877,0.2855,0.2853,0.285,0.282,0.2828,0.2808,0.2805,0.2823,0.2805,0.2804,0.2793,0.279,0.2784,0.2771,0.277,0.2773,0.2772,0.2772,0.2772,0,0,0,0,0,0,0,0.2882,0.2879,0.2853,0.2854,0.2851,0.2836,0.2833,0.2824,0.281,0.2821,0.2819,0.2813,0.2792,0.2785,0.2783,0.277,0.2773,0.2772,0.2772,0.2771,0.2776,0.2776,0,0,0,0,0,0,0.2887,0.2881,0.2854,0.2852,0.2864,0.2836,0.2832,0.2831,0.281,0.2806,0.2813,0.2812,0.2786,0.2784,0.2782,0.2784,0.2772,0.2771,0.277,0.2775,0.2776,0.2777,0,0,0,0,0,0,0.2888,0.2885,0.2856,0.2864,0.2859,0.2835,0.2834,0.283,0.2827,0.2803,0.28,0.2815,0.2786,0.2783,0.2778,0.2783,0.2771,0.277,0.2774,0.2775,0.2776,0.2784,0,0,0,0,0,0,0.2889,0.2886,0.2885,0.2865,0.2859,0.285,0.2834,0.2829,0.2822,0.2821,0.2803,0.28,0.2786,0.2779,0.2777,0.2781,0.2769,0.2773,0.2775,0.2776,0.2783,0.2785,0.2787,0,0,0,0,0,0.289,0.2891,0.2886,0.2882,0.286,0.285,0.2847,0.2829,0.2823,0.2825,0.2811,0.2801,0.2786,0.2779,0.2775,0.278,0.2773,0.2774,0.2776,0.2782,0.2785,0.2787,0,0,0,0,0,0,0.2889,0.2888,0.2882,0.2877,0.2869,0.2847,0.2842,0.2834,0.2824,0.2821,0.2803,0.28,0.28,0.2792,0.2784,0.2788,0.2781,0.2782,0.2786,0.2789,0.2791,0.2791,0.2768,0,0,0,0,0,0.2893,0.2903,0.289,0.2885,0.2882,0.2865,0.2858,0.2849,0.2836,0.2831,0.2818,0.2809,0.2804,0.2798,0.2793,0.2789,0.2795,0.2794,0.2796,0.2798,0.2798,0.2835,0.284,0.2782,0.2782,0.2782,0,0,0.2888,0.2889,0.2892,0.2887,0.2876,0.2864,0.286,0.2853,0.284,0.283,0.2813,0.2817,0.2807,0.2804,0.2803,0.2796,0.2814,0.28,0.2801,0.28,0.2837,0.2843,0.2848,0.2783,0.2783,0.2783,0,0,0.2875,0.2887,0.2885,0.2883,0.2875,0.2869,0.2871,0.2856,0.285,0.284,0.2832,0.2842,0.2824,0.2822,0.2818,0.2832,0.2828,0.2832,0.2835,0.2871,0.2876,0.288,0.2875,0.2879,0.2828,0.2828,0.2828,0,0.2872,0.2859,0.288,0.2871,0.2865,0.2872,0.2856,0.2852,0.2838,0.2835,0.2838,0.2836,0.2834,0.2831,0.2837,0.2836,0.2843,0.2822,0.2873,0.2878,0.2883,0.2876,0.2881,0.2829,0.2829,0.2829,0.2829,0,0.2843,0.2839,0.2837,0.2835,0.2838,0.2829,0.2829,0.2834,0.2835,0.2829,0.2838,0.2844,0.2844,0.2851,0.2845,0.2872,0.2861,0.2876,0.2865,0.2889,0.2881,0.2885,0.2829,0.2829,0.2829,0.2829,0,0,0.2824,0.2819,0.2818,0.2814,0.2819,0.282,0.2815,0.2812,0.281,0.2819,0.2819,0.2831,0.2848,0.2846,0.2853,0.2884,0.2919,0.2892,0.2894,0.2882,0.2971,0.2838,0.283,0.2947,0.2948,0.2949,0.2945,0,0.2792,0.277,0.2779,0.2765,0.2755,0.2777,0.2774,0.2782,0.279,0.2797,0.2822,0.2827,0.284,0.2849,0.2884,0.2926,0.2935,0.2917,0.2953,0.2953,0.283,0.2833,0.2665,0.2637,0.2949,0.295,0.295,0,0.276,0.2748,0.2719,0.2737,0.2737,0.2733,0.2751,0.2752,0.2769,0.2778,0.2798,0.2814,0.2857,0.2869,0.2941,0.2932,0.2943,0.2969,0.297,0.2847,0.2829,0.2668,0.2633,0.253,0.2957,0.2956,0.2956,0,0.273,0.2724,0.27,0.2699,0.2705,0.2707,0.2723,0.274,0.2737,0.2767,0.2766,0.2823,0.2842,0.2905,0.2954,0.2955,0.3027,0.3035,0.2912,0.2902,0.2765,0.2739,0.263,0.3062,0.3062,0.3062,0.3062,0,0.2702,0.2693,0.2686,0.2664,0.2662,0.2687,0.2684,0.2708,0.272,0.271,0.2754,0.2754,0.2857,0.2901,0.2955,0.2942,0.3026,0.2902,0.2894,0.2758,0.2733,0.2642,0.2634,0.3062,0.3062,0.3062,0.3062,0,0.2681,0.267,0.2642,0.2632,0.2639,0.2641,0.2656,0.2651,0.2672,0.266,0.2666,0.2712,0.2752,0.2825,0.2917,0.2905,0.2825,0.2903,0.271,0.2678,0.2425,0.2424,0.2227,0.2186,0.275,0.2747,0.2744,0,0.267,0.2642,0.2607,0.2594,0.2588,0.2594,0.2591,0.262,0.2605,0.2624,0.2608,0.2633,0.264,0.2703,0.2685,0.2705,0.2672,0.2546,0.2506,0.2367,0.2364,0.2286,0.2264,0.2329,0.2323,0.2319,0.2315,0,0.2632,0.2607,0.2575,0.254,0.2528,0.2515,0.2513,0.2491,0.2511,0.2502,0.2496,0.2513,0.2499,0.2425,0.2411,0.2417,0.2371,0.2439,0.2367,0.2067,0.1907,0.1878,0.2364,0.2271,0.2276,0.2279,0.2281,0.2283,0.26,0.2568,0.2509,0.2488,0.2466,0.2419,0.237,0.2368,0.2336,0.2273,0.2352,0.2287,0.222,0.215,0.2138,0.1921,0.2014,0.1846,0.187,0.1812,0.1713,0.2066,0.1922,0.1924,0.1926,0.1927,0.1929,0,0.2526,0.2497,0.247,0.24,0.2341,0.2359,0.2294,0.2218,0.2144,0.2114,0.2083,0.1913,0.1786,0.171,0.1497,0.1393,0.136,0.1347,0.123,0.1257,0.162,0.1541,0.1218,0.1218,0.1218,0.1218,0.1219,0.1219,0.2482,0.2415,0.2399,0.2288,0.2245,0.2113,0.2055,0.1966,0.1898,0.1727,0.1583,0.1537,0.1436,0.1189,0.0998,0.0983,0.0935,0.0805,0.091,0.1183,0.1233,0.128,0.1201,0.0812,0.0812,0.0452,0.0449,0.0447]},{"header":{"parameterUnit":"m.s-1","parameterCategory":2,"la1":30.2991,"la2":30.254,"lo1":-89.0895,"lo2":-89.0444,"dy":0.0017,"dx":0.0017,"nx":28,"ny":28,"refTime":"2025-04-09T03:00:00:Z","depth":"0","parameterNumber":3,"parameterNumberName":"V-component_of_CURRENTS"},"data":[0,0,0,0,0,0,0,0,0,0,0,0,0,0,0,0,0,0,0,0,0,0,0,0,0,0,0,0,0,0,0,0,0,0,0,0,0,0,0,0,0,0,0,0,0,0,0,0,0,0,0,0,0,0,0,0,0,0,0.0373,0.0374,0,0.0434,0.0435,0.0435,0.0463,0.0464,0.0464,0.0464,0.0469,0.0469,0.0469,0,0,0,0,0,0,0,0,0,0,0,0,0,0.0298,0.0299,0.0373,0.0374,0.0375,0.0434,0.0435,0.0435,0.0463,0.0464,0.0464,0.0464,0.0469,0.0469,0.0469,0,0,0,0,0,0,0,0,0,0,0,0,0,0.0339,0.0299,0.0373,0.0399,0.0402,0.0434,0.0435,0.0435,0.0463,0.0464,0.0464,0.0464,0.0469,0.0469,0.0469,0.0461,0,0,0.0469,0.0469,0,0,0,0,0,0,0,0,0.0337,0.0341,0.0394,0.0397,0.0401,0.0445,0.0411,0.0442,0.0463,0.0437,0.0464,0.0465,0.0458,0.0459,0.0465,0.0461,0.0461,0.0469,0.0469,0.0469,0.0469,0,0,0,0,0,0,0,0.0334,0.0339,0.0394,0.0395,0.0399,0.0414,0.0419,0.0417,0.0441,0.0439,0.0442,0.0454,0.0459,0.0465,0.0466,0.0461,0.0469,0.0469,0.0468,0.0468,0.0479,0.0479,0,0,0,0,0,0,0.0332,0.0336,0.0392,0.0396,0.0373,0.0415,0.0421,0.0427,0.0442,0.0446,0.0454,0.0455,0.0466,0.0466,0.0466,0.0484,0.0469,0.0468,0.0468,0.0479,0.0479,0.0479,0,0,0,0,0,0,0.033,0.0336,0.039,0.037,0.0379,0.0416,0.0423,0.0428,0.044,0.0454,0.0457,0.0461,0.0466,0.0466,0.0465,0.0483,0.0468,0.0468,0.0478,0.0479,0.0479,0.0502,0,0,0,0,0,0,0.0327,0.0334,0.0332,0.037,0.038,0.0408,0.0423,0.0429,0.0449,0.0451,0.0461,0.0462,0.0466,0.0465,0.0465,0.0483,0.0468,0.0478,0.0478,0.0479,0.0501,0.0503,0.0505,0,0,0,0,0,0.0324,0.0321,0.0331,0.0338,0.0377,0.0409,0.0414,0.044,0.0448,0.0452,0.0458,0.0462,0.047,0.0465,0.0465,0.0483,0.0477,0.0478,0.0479,0.0499,0.0502,0.0505,0,0,0,0,0,0,0.0281,0.0325,0.0337,0.0346,0.0375,0.0415,0.042,0.044,0.0449,0.0448,0.0458,0.0459,0.0469,0.0467,0.0461,0.0488,0.0477,0.0478,0.0493,0.0496,0.0498,0.0522,0.0468,0,0,0,0,0,0.0272,0.0286,0.0327,0.0333,0.0347,0.0383,0.0397,0.0417,0.0436,0.0441,0.0452,0.046,0.0471,0.0475,0.048,0.0486,0.0497,0.05,0.0502,0.0504,0.0523,0.0562,0.057,0.0482,0.0482,0.0482,0,0,0.0258,0.0284,0.0291,0.0326,0.0349,0.0376,0.0391,0.0414,0.0437,0.0437,0.0459,0.0464,0.0473,0.0488,0.0492,0.0489,0.0527,0.0505,0.0507,0.0525,0.0564,0.0572,0.058,0.0483,0.0483,0.0482,0,0,0.0248,0.0259,0.0272,0.0301,0.034,0.0363,0.037,0.041,0.0426,0.0444,0.0457,0.0478,0.0481,0.0508,0.0518,0.0534,0.0536,0.0528,0.0562,0.0599,0.0607,0.0615,0.0609,0.0616,0.0532,0.0532,0.0532,0,0.0226,0.0257,0.0279,0.0306,0.0333,0.0359,0.0385,0.0405,0.044,0.0461,0.045,0.05,0.0501,0.0549,0.0555,0.0543,0.0547,0.0551,0.0604,0.0612,0.0619,0.0612,0.0619,0.0533,0.0533,0.0533,0.0533,0,0.0239,0.0265,0.0275,0.0321,0.0344,0.037,0.0407,0.0427,0.0445,0.0476,0.0519,0.053,0.0569,0.0569,0.0565,0.0622,0.0599,0.0601,0.06,0.0629,0.0619,0.0626,0.0535,0.0534,0.0534,0.0534,0,0,0.0196,0.0269,0.0274,0.0307,0.0358,0.0382,0.0415,0.0465,0.0507,0.0528,0.0589,0.0608,0.0627,0.0641,0.0648,0.0679,0.0714,0.066,0.0662,0.0659,0.0766,0.0718,0.072,0.0725,0.0727,0.0729,0.0727,0,0.0204,0.0255,0.0291,0.0342,0.0376,0.0416,0.0453,0.0499,0.0535,0.0594,0.0626,0.0674,0.0651,0.0676,0.0705,0.0729,0.0739,0.0713,0.0734,0.0735,0.0694,0.073,0.0735,0.0732,0.0734,0.0735,0.0736,0,0.0215,0.0252,0.0299,0.0378,0.0395,0.0424,0.0498,0.0537,0.0618,0.0651,0.0709,0.0738,0.0799,0.0768,0.082,0.0803,0.0783,0.0786,0.0786,0.0747,0.0702,0.0709,0.0745,0.0764,0.0747,0.0746,0.0745,0,0.0193,0.0264,0.03,0.0326,0.0408,0.0435,0.0476,0.0553,0.0606,0.0695,0.0749,0.0814,0.0861,0.087,0.0866,0.085,0.091,0.0887,0.0817,0.0811,0.0824,0.0817,0.0892,0.091,0.091,0.091,0.091,0,0.0202,0.0238,0.0292,0.0319,0.0372,0.0427,0.0496,0.055,0.0645,0.073,0.0778,0.0859,0.0893,0.0928,0.09,0.0886,0.0933,0.0836,0.0823,0.0826,0.0819,0.0842,0.0841,0.091,0.091,0.091,0.091,0,0.0192,0.0226,0.0279,0.0347,0.0368,0.0406,0.0503,0.0569,0.0647,0.0762,0.0797,0.0907,0.0957,0.0957,0.0982,0.0931,0.0922,0.0885,0.0862,0.0847,0.0786,0.0785,0.0844,0.0858,0.0818,0.0817,0.0817,0,0.0199,0.022,0.0283,0.0316,0.0348,0.041,0.0469,0.0558,0.0638,0.0797,0.0863,0.0945,0.1027,0.1031,0.0967,0.0907,0.0902,0.0839,0.0812,0.08,0.0791,0.0801,0.081,0.0824,0.0824,0.0823,0.0823,0,0.0215,0.0226,0.0265,0.0327,0.0381,0.0457,0.0544,0.0608,0.0737,0.0842,0.0997,0.1075,0.1074,0.1064,0.0958,0.0897,0.0864,0.0822,0.0848,0.0839,0.0822,0.0824,0.0774,0.0818,0.0818,0.0819,0.0819,0.0819,0.0219,0.0248,0.0294,0.0358,0.0421,0.0524,0.0605,0.0716,0.0857,0.1044,0.1085,0.1219,0.116,0.1041,0.0959,0.0816,0.0823,0.0777,0.0784,0.0799,0.0809,0.0719,0.0723,0.0723,0.0723,0.0723,0.0723,0,0.0239,0.0279,0.0335,0.0422,0.0504,0.0538,0.068,0.0785,0.0964,0.1111,0.1244,0.129,0.1216,0.1094,0.09,0.0821,0.0808,0.0781,0.0829,0.0845,0.0806,0.0802,0.0778,0.0778,0.0778,0.0778,0.0778,0.0778,0.0252,0.0311,0.035,0.0487,0.0554,0.0689,0.0783,0.0934,0.1064,0.1267,0.1352,0.1407,0.1344,0.1063,0.0912,0.0861,0.0883,0.0835,0.0853,0.0849,0.0851,0.0852,0.0851,0.0838,0.0838,0.0915,0.0916,0.0916]}],[{"header":{"parameterUnit":"m.s-1","parameterCategory":2,"la1":30.2991,"la2":30.254,"lo1":-89.0895,"lo2":-89.0444,"dy":0.0017,"dx":0.0017,"nx":28,"ny":28,"refTime":"2025-04-09T03:00:00:Z","depth":"2","parameterNumber":2,"parameterNumberName":"U-component_of_CURRENTS"},"data":[0,0,0,0,0,0,0,0,0,0,0,0,0,0,0,0,0,0,0,0,0,0,0,0,0,0,0,0,0,0,0,0,0,0,0,0,0,0,0,0,0,0,0,0,0,0,0,0,0,0,0,0,0,0,0,0,0,0,0.1166,0.1167,0,0.1131,0.113,0.1129,0.1134,0.1135,0.1136,0.1138,0.126,0.1262,0.1264,0,0,0,0,0,0,0,0,0,0,0,0,0,0.1174,0.1174,0.1166,0.1167,0.1167,0.1131,0.113,0.1129,0.1134,0.1135,0.1137,0.1138,0.1259,0.1262,0.1265,0,0,0,0,0,0,0,0,0,0,0,0,0,0.1152,0.1174,0.1166,0.117,0.117,0.1131,0.113,0.1128,0.1133,0.1135,0.1137,0.1139,0.1259,0.1262,0.1265,0.1249,0,0,0.1275,0.1276,0,0,0,0,0,0,0,0,0.1153,0.1151,0.1169,0.1169,0.117,0.1144,0.1178,0.1179,0.1133,0.1141,0.1138,0.114,0.1239,0.1244,0.1222,0.1255,0.126,0.1275,0.1277,0.1279,0.1279,0,0,0,0,0,0,0,0.1155,0.1152,0.1146,0.1169,0.117,0.1151,0.115,0.1176,0.1178,0.114,0.1142,0.1148,0.124,0.1218,0.1225,0.1262,0.1275,0.1278,0.128,0.1281,0.1385,0.1386,0,0,0,0,0,0,0.1174,0.1154,0.1147,0.1145,0.1173,0.115,0.1149,0.1145,0.1175,0.1181,0.1146,0.1148,0.1212,0.1221,0.123,0.1339,0.1278,0.1282,0.1283,0.1384,0.1385,0.1386,0,0,0,0,0,0,0.1174,0.1173,0.1149,0.1154,0.1151,0.115,0.1145,0.1144,0.1167,0.1179,0.1187,0.1177,0.1214,0.1226,0.127,0.134,0.1283,0.1286,0.1383,0.1384,0.1386,0.1477,0,0,0,0,0,0,0.1174,0.1173,0.1181,0.1155,0.1152,0.112,0.1144,0.1142,0.1168,0.1172,0.1208,0.1218,0.1216,0.1265,0.1273,0.1343,0.1288,0.1382,0.1384,0.1385,0.1473,0.1481,0.1488,0,0,0,0,0,0.1174,0.1143,0.1181,0.1181,0.1161,0.112,0.1114,0.1115,0.1169,0.115,0.1195,0.1219,0.1282,0.1268,0.1277,0.135,0.1381,0.1383,0.1385,0.147,0.148,0.1488,0,0,0,0,0,0,0.1163,0.1141,0.1181,0.1155,0.1153,0.1123,0.1104,0.1142,0.1159,0.1188,0.1221,0.1231,0.1295,0.1298,0.1282,0.1378,0.134,0.1343,0.1401,0.141,0.1418,0.1404,0.1291,0,0,0,0,0,0.1168,0.116,0.1139,0.1149,0.1122,0.1138,0.1134,0.115,0.1161,0.1172,0.1227,0.1272,0.1299,0.1336,0.1347,0.1405,0.1413,0.1457,0.1464,0.1471,0.1463,0.1553,0.157,0.1392,0.1392,0.1392,0,0,0.12,0.1177,0.1192,0.115,0.1142,0.1114,0.1136,0.1131,0.1153,0.1187,0.1254,0.13,0.1313,0.1365,0.1398,0.139,0.1519,0.1474,0.148,0.1467,0.1557,0.1575,0.1591,0.1393,0.1393,0.1393,0,0,0.1232,0.1201,0.12,0.1166,0.1151,0.1125,0.1139,0.1147,0.1172,0.1229,0.1271,0.1359,0.1406,0.1444,0.146,0.1518,0.1546,0.154,0.1592,0.1682,0.1698,0.1712,0.1723,0.1737,0.156,0.156,0.1561,0,0.1242,0.1253,0.12,0.1165,0.1127,0.1138,0.1111,0.1126,0.1184,0.1214,0.1258,0.1386,0.1437,0.15,0.1537,0.1544,0.1568,0.1564,0.1696,0.171,0.1724,0.1731,0.1746,0.1565,0.1565,0.1564,0.1564,0,0.129,0.1271,0.1244,0.1204,0.1148,0.112,0.1097,0.1123,0.1183,0.1236,0.1337,0.1418,0.1503,0.1552,0.1573,0.1699,0.1674,0.1689,0.1681,0.1748,0.1749,0.1764,0.1572,0.157,0.1569,0.1567,0,0,0.1322,0.1279,0.127,0.1242,0.1148,0.1101,0.1096,0.108,0.1137,0.1237,0.1326,0.1436,0.1542,0.1567,0.1646,0.1749,0.1893,0.1782,0.1785,0.1803,0.2048,0.1885,0.1883,0.1954,0.1957,0.196,0.2004,0,0.1356,0.1306,0.1266,0.1214,0.115,0.1091,0.1084,0.109,0.1146,0.1248,0.1353,0.1484,0.1526,0.1641,0.1739,0.185,0.1937,0.1875,0.1967,0.1967,0.1828,0.1898,0.1738,0.1752,0.2017,0.2019,0.2021,0,0.1348,0.1335,0.1278,0.1183,0.1148,0.1141,0.108,0.1093,0.1187,0.1259,0.1387,0.1495,0.1654,0.1718,0.1898,0.1863,0.1967,0.2043,0.2047,0.187,0.1832,0.1731,0.1767,0.2044,0.2042,0.2041,0.2039,0,0.1357,0.1271,0.1226,0.1194,0.1139,0.1129,0.1109,0.1135,0.1171,0.1326,0.1421,0.156,0.1714,0.1827,0.199,0.1976,0.2178,0.2166,0.2088,0.2075,0.1937,0.1905,0.2312,0.2312,0.2312,0.2312,0.2312,0,0.1331,0.1286,0.1247,0.1281,0.1238,0.1159,0.1195,0.1213,0.1293,0.1386,0.1485,0.1612,0.1776,0.1904,0.1997,0.2064,0.218,0.2091,0.2091,0.1955,0.1926,0.2177,0.2161,0.2314,0.2313,0.2313,0.2313,0,0.1338,0.1296,0.1281,0.129,0.1268,0.1255,0.126,0.13,0.1372,0.1503,0.1574,0.1703,0.1843,0.1939,0.2139,0.2083,0.2164,0.2178,0.1959,0.1929,0.1981,0.1969,0.2032,0.2027,0.2023,0.202,0.2017,0,0.132,0.1325,0.1362,0.1334,0.1359,0.1339,0.1338,0.1372,0.1425,0.1562,0.1635,0.1796,0.1886,0.1993,0.1971,0.1993,0.2144,0.184,0.1769,0.1966,0.1961,0.1955,0.1949,0.1624,0.1618,0.1613,0.161,0,0.1351,0.1386,0.1414,0.1426,0.1413,0.1407,0.1434,0.1474,0.153,0.1601,0.1711,0.1781,0.1852,0.176,0.1744,0.1752,0.1788,0.1731,0.2075,0.169,0.1578,0.1573,0.1582,0.1566,0.157,0.1574,0.1576,0.1578,0.1344,0.1378,0.1437,0.1416,0.1427,0.1472,0.1462,0.1482,0.1525,0.1563,0.1665,0.1642,0.1624,0.1452,0.1428,0.1387,0.1512,0.1439,0.1457,0.148,0.1396,0.1279,0.1193,0.1195,0.1197,0.1198,0.12,0,0.136,0.139,0.1386,0.1387,0.1443,0.1477,0.1489,0.1434,0.1444,0.1448,0.1462,0.1253,0.115,0.118,0.1016,0.0955,0.0995,0.0942,0.0999,0.1042,0.108,0.0979,0.0663,0.0662,0.066,0.0659,0,0,0.1345,0.1366,0.1394,0.1407,0.1434,0.1439,0.1457,0.1363,0.1294,0.1164,0.1076,0.1063,0.1086,0.0824,0.0791,0.0712,0.0882,0.0685,0.1115,0.1225,0.1261,0.1361,0.1251,0,0,0,0,0]},{"header":{"parameterUnit":"m.s-1","parameterCategory":2,"la1":30.2991,"la2":30.254,"lo1":-89.0895,"lo2":-89.0444,"dy":0.0017,"dx":0.0017,"nx":28,"ny":28,"refTime":"2025-04-09T03:00:00:Z","depth":"2","parameterNumber":3,"parameterNumberName":"V-component_of_CURRENTS"},"data":[0,0,0,0,0,0,0,0,0,0,0,0,0,0,0,0,0,0,0,0,0,0,0,0,0,0,0,0,0,0,0,0,0,0,0,0,0,0,0,0,0,0,0,0,0,0,0,0,0,0,0,0,0,0,0,0,0,0,0.0093,0.0093,0,0.0081,0.0081,0.0081,0.0061,0.0061,0.0061,0.006,0.0022,0.0021,0.0021,0,0,0,0,0,0,0,0,0,0,0,0,0,0.0071,0.0072,0.0093,0.0093,0.0092,0.0081,0.0081,0.0081,0.0061,0.0061,0.0061,0.006,0.0022,0.0021,0.002,0,0,0,0,0,0,0,0,0,0,0,0,0,0.0072,0.0072,0.0093,0.0081,0.008,0.0081,0.0081,0.0081,0.0062,0.0061,0.006,0.006,0.0022,0.0021,0.002,0.0025,0,0,0.0017,0.0017,0,0,0,0,0,0,0,0,0.0072,0.0073,0.0083,0.0082,0.0081,0.0072,0.0059,0.0061,0.0062,0.0069,0.006,0.006,0.0037,0.0034,0.0034,0.0023,0.0021,0.0017,0.0016,0.0016,0.0016,0,0,0,0,0,0,0,0.0072,0.0073,0.0088,0.0083,0.0082,0.0068,0.0067,0.0059,0.0055,0.0068,0.0067,0.0065,0.0036,0.0035,0.0033,0.0021,0.0017,0.0016,0.0016,0.0015,-0.0011,-0.0011,0,0,0,0,0,0,0.0076,0.0073,0.0088,0.0088,0.0075,0.0069,0.0068,0.0075,0.0056,0.0053,0.0066,0.0065,0.0037,0.0034,0.0031,0.0034,0.0016,0.0015,0.0014,-0.0011,-0.0011,-0.0011,0,0,0,0,0,0,0.0076,0.0078,0.0089,0.008,0.008,0.007,0.0078,0.0076,0.0062,0.0055,0.0051,0.0053,0.0036,0.0033,0.0016,0.0033,0.0015,0.0014,-0.0011,-0.0011,-0.0011,0.0041,0,0,0,0,0,0,0.0075,0.0078,0.0081,0.008,0.0081,0.0096,0.0078,0.0076,0.0063,0.0061,0.0043,0.0039,0.0036,0.0017,0.0015,0.0031,0.0013,-0.0011,-0.0011,-0.0011,0.004,0.0043,0.0046,0,0,0,0,0,0.0075,0.0098,0.0082,0.0083,0.0087,0.0096,0.0095,0.0085,0.0063,0.0068,0.0045,0.0039,0.0014,0.0016,0.0013,0.003,-0.0011,-0.0011,-0.0011,0.0038,0.0042,0.0046,0,0,0,0,0,0,0.0081,0.0098,0.008,0.0102,0.0096,0.0093,0.01,0.0079,0.0064,0.0053,0.0036,0.0033,0.0024,0.0013,0.0015,0.0019,0.0002,0.0001,0.004,0.0044,0.0047,0.0071,0.0012,0,0,0,0,0,0.0084,0.0103,0.0105,0.0111,0.0118,0.0099,0.0098,0.0084,0.0072,0.0064,0.0049,0.003,0.0024,0.0021,0.001,0.0012,0.0022,0.0019,0.0022,0.0025,0.0041,0.0081,0.009,-0.0012,-0.0012,-0.0012,0,0,0.0074,0.0092,0.0093,0.0113,0.0108,0.0127,0.0098,0.0096,0.0099,0.0062,0.0059,0.0037,0.0023,0.0028,0.0024,0.0021,0.0054,0.0025,0.0028,0.0042,0.0082,0.0092,0.0102,-0.0012,-0.0012,-0.0012,0,0,0.008,0.0094,0.0114,0.013,0.0133,0.0133,0.013,0.0121,0.011,0.0095,0.0075,0.0063,0.0042,0.0052,0.005,0.0061,0.0064,0.0048,0.0093,0.0132,0.0142,0.0151,0.016,0.0169,0.0057,0.0057,0.0057,0,0.0066,0.0098,0.0115,0.0151,0.0167,0.0139,0.0161,0.0155,0.0132,0.013,0.0098,0.0081,0.0062,0.0091,0.0091,0.0073,0.0084,0.0084,0.014,0.0149,0.0157,0.0165,0.0175,0.006,0.0059,0.0059,0.0059,0,0.0096,0.0121,0.0141,0.018,0.0203,0.0215,0.0223,0.0221,0.0191,0.0179,0.0174,0.0148,0.0142,0.0133,0.0114,0.0162,0.0146,0.0138,0.0139,0.0171,0.0176,0.0185,0.0063,0.0062,0.0061,0.0061,0,0,0.0065,0.0142,0.0147,0.0171,0.0221,0.0237,0.0267,0.0282,0.0289,0.0261,0.028,0.0257,0.0231,0.0227,0.0205,0.0236,0.0286,0.0213,0.0214,0.0237,0.0357,0.0327,0.0334,0.0294,0.0296,0.0298,0.0333,0,0.0071,0.0136,0.0182,0.0228,0.0262,0.0289,0.0325,0.0338,0.0325,0.0339,0.0322,0.0317,0.0272,0.0261,0.0289,0.0281,0.0315,0.0276,0.031,0.031,0.0294,0.0346,0.0334,0.0363,0.0341,0.0343,0.0344,0,0.0094,0.0132,0.0184,0.026,0.0279,0.0299,0.0353,0.0377,0.0408,0.0401,0.0408,0.0391,0.0415,0.0372,0.0404,0.0381,0.0378,0.0376,0.0378,0.0344,0.0299,0.0329,0.0381,0.0359,0.0358,0.0357,0.0356,0,0.0071,0.0143,0.0179,0.0208,0.0286,0.0302,0.033,0.0374,0.0404,0.043,0.0458,0.0469,0.0483,0.0487,0.0467,0.0442,0.0513,0.0475,0.0452,0.0448,0.0442,0.0434,0.0528,0.0528,0.0528,0.0528,0.0528,0,0.0083,0.0109,0.0156,0.0177,0.0211,0.0275,0.0307,0.0342,0.0403,0.0467,0.0472,0.0533,0.0519,0.0552,0.0516,0.0514,0.0552,0.0478,0.047,0.0454,0.0448,0.0446,0.0436,0.0529,0.0529,0.0529,0.0529,0,0.0061,0.0095,0.0133,0.0188,0.0201,0.0216,0.0289,0.033,0.0384,0.0475,0.0495,0.0588,0.0636,0.0617,0.0637,0.0582,0.0572,0.0567,0.0532,0.0519,0.0462,0.0453,0.0534,0.0534,0.0533,0.0533,0.0533,0,0.0058,0.0074,0.0123,0.0134,0.0146,0.0176,0.0222,0.0295,0.036,0.0522,0.0588,0.0671,0.0757,0.0758,0.0678,0.0619,0.0614,0.0557,0.0505,0.0486,0.047,0.0462,0.0455,0.0508,0.0508,0.0508,0.0507,0,0.0051,0.0061,0.0091,0.0115,0.014,0.021,0.0274,0.0333,0.0469,0.0579,0.0759,0.0842,0.0843,0.0807,0.0708,0.0652,0.0552,0.0545,0.0579,0.0499,0.0462,0.0446,0.044,0.0504,0.0504,0.0505,0.0505,0.0505,0.0034,0.005,0.0094,0.0115,0.0163,0.0278,0.0362,0.0472,0.0632,0.0832,0.0872,0.0982,0.0891,0.0772,0.0676,0.0545,0.0557,0.0492,0.0494,0.0495,0.0477,0.0441,0.0474,0.0474,0.0474,0.0474,0.0474,0,0.0047,0.0079,0.0102,0.017,0.025,0.0286,0.0448,0.057,0.0789,0.0895,0.1033,0.094,0.0891,0.0774,0.0583,0.0475,0.0455,0.043,0.0434,0.0438,0.0441,0.042,0.0402,0.0401,0.0401,0.04,0,0,0.0051,0.0102,0.0128,0.0255,0.0317,0.0495,0.0616,0.0786,0.0893,0.1032,0.1056,0.1063,0.0918,0.0754,0.062,0.0519,0.0497,0.0484,0.0554,0.058,0.0585,0.0489,0.0463,0,0,0,0,0]}],[{"header":{"parameterUnit":"m.s-1","parameterCategory":2,"la1":30.2991,"la2":30.254,"lo1":-89.0895,"lo2":-89.0444,"dy":0.0017,"dx":0.0017,"nx":28,"ny":28,"refTime":"2025-04-09T03:00:00:Z","depth":"4","parameterNumber":2,"parameterNumberName":"U-component_of_CURRENTS"},"data":[0,0,0,0,0,0,0,0,0,0,0,0,0,0,0,0,0,0,0,0,0,0,0,0,0,0,0,0,0,0,0,0,0,0,0,0,0,0,0,0,0,0,0,0,0,0,0,0,0,0,0,0,0,0,0,0,0,0,-0.0301,-0.0301,0,-0.0295,-0.0295,-0.0295,-0.0279,-0.0278,-0.0278,-0.0277,-0.0326,-0.0328,-0.033,0,0,0,0,0,0,0,0,0,0,0,0,0,-0.0315,-0.0315,-0.0301,-0.0301,-0.0301,-0.0295,-0.0295,-0.0295,-0.0279,-0.0278,-0.0278,-0.0277,-0.0326,-0.0328,-0.033,0,0,0,0,0,0,0,0,0,0,0,0,0,-0.031,-0.0315,-0.0301,-0.0291,-0.029,-0.0295,-0.0295,-0.0295,-0.0279,-0.0278,-0.0278,-0.0277,-0.0325,-0.0328,-0.033,-0.036,0,0,-0.0338,-0.0339,0,0,0,0,0,0,0,0,-0.031,-0.031,-0.0293,-0.0292,-0.029,-0.0286,-0.0318,-0.0319,-0.0279,-0.0284,-0.0277,-0.0277,-0.0318,-0.0321,-0.0322,-0.0362,-0.0364,-0.0338,-0.034,-0.0341,-0.0342,0,0,0,0,0,0,0,-0.0311,-0.031,-0.03,-0.0292,-0.0291,-0.0292,-0.0291,-0.0318,-0.0307,-0.0284,-0.0282,-0.028,-0.0317,-0.0319,-0.0323,-0.0365,-0.0338,-0.034,-0.0342,-0.0343,-0.0385,-0.0385,0,0,0,0,0,0,-0.0309,-0.031,-0.03,-0.0299,-0.0298,-0.0292,-0.0291,-0.0289,-0.0305,-0.0306,-0.0281,-0.0279,-0.0315,-0.032,-0.0325,-0.031,-0.0341,-0.0343,-0.0345,-0.0386,-0.0385,-0.0385,0,0,0,0,0,0,-0.0309,-0.0308,-0.03,-0.0304,-0.0303,-0.0293,-0.0291,-0.0289,-0.0281,-0.0302,-0.0304,-0.0272,-0.0315,-0.0321,-0.0327,-0.0314,-0.0344,-0.0347,-0.0386,-0.0385,-0.0385,-0.0314,0,0,0,0,0,0,-0.031,-0.0308,-0.0313,-0.0304,-0.0302,-0.0303,-0.0291,-0.029,-0.028,-0.0278,-0.0296,-0.03,-0.0315,-0.0323,-0.033,-0.0318,-0.0349,-0.0387,-0.0386,-0.0385,-0.0317,-0.0311,-0.0306,0,0,0,0,0,-0.031,-0.0319,-0.0313,-0.0312,-0.0307,-0.0303,-0.0303,-0.0294,-0.028,-0.0282,-0.0278,-0.0299,-0.0323,-0.0324,-0.0332,-0.0322,-0.0387,-0.0386,-0.0385,-0.032,-0.0312,-0.0306,0,0,0,0,0,0,-0.0325,-0.0318,-0.0312,-0.0317,-0.0309,-0.0299,-0.0303,-0.029,-0.0288,-0.0282,-0.0295,-0.0299,-0.0297,-0.0324,-0.0325,-0.0332,-0.0359,-0.0359,-0.0306,-0.03,-0.0295,-0.0251,-0.0351,0,0,0,0,0,-0.0331,-0.0337,-0.0324,-0.0328,-0.0325,-0.0311,-0.0308,-0.0297,-0.0291,-0.0288,-0.0288,-0.0296,-0.0303,-0.0311,-0.0324,-0.0335,-0.033,-0.0334,-0.0328,-0.0323,-0.0294,-0.0305,-0.0297,-0.0381,-0.0381,-0.0381,0,0,-0.034,-0.0335,-0.034,-0.0333,-0.0326,-0.0316,-0.0308,-0.03,-0.0281,-0.0297,-0.0273,-0.0277,-0.03,-0.0297,-0.0301,-0.0317,-0.029,-0.0322,-0.0317,-0.029,-0.0303,-0.0294,-0.0287,-0.0381,-0.0381,-0.0381,0,0,-0.0353,-0.0352,-0.0358,-0.035,-0.0336,-0.0323,-0.0317,-0.0295,-0.0277,-0.0257,-0.0256,-0.0245,-0.0262,-0.0262,-0.0269,-0.0248,-0.0258,-0.026,-0.0201,-0.0212,-0.0205,-0.0198,-0.0147,-0.0137,-0.0261,-0.0261,-0.0261,0,-0.0362,-0.036,-0.0359,-0.0354,-0.0335,-0.0322,-0.0303,-0.0293,-0.0269,-0.0233,-0.0243,-0.0208,-0.0241,-0.0213,-0.0201,-0.0234,-0.0218,-0.0223,-0.0203,-0.0197,-0.0191,-0.0141,-0.0131,-0.0258,-0.0258,-0.0258,-0.0259,0,-0.0371,-0.0367,-0.0368,-0.0351,-0.0333,-0.032,-0.0291,-0.0261,-0.0227,-0.0197,-0.0144,-0.0162,-0.0124,-0.0152,-0.0169,-0.0139,-0.013,-0.0191,-0.0214,-0.0178,-0.0128,-0.0118,-0.0253,-0.0254,-0.0255,-0.0256,0,0,-0.0387,-0.0376,-0.0375,-0.0351,-0.0322,-0.03,-0.026,-0.0201,-0.0145,-0.012,-0.0042,-0.005,-0.0015,-0.002,-0.0039,-0.006,-0.0013,-0.0098,-0.01,-0.0034,0.0021,-0.0036,-0.003,-0.0073,-0.0072,-0.0071,0.0054,0,-0.0387,-0.0376,-0.036,-0.0322,-0.0302,-0.0256,-0.0208,-0.015,-0.01,-0.003,-0.001,0.0041,0.0019,0.0049,0.0038,-0.0019,0.0011,-0.0037,-0.0034,-0.0032,-0.0079,-0.0023,-0.0067,0.0061,0.0063,0.0065,0.0066,0,-0.0387,-0.0376,-0.0348,-0.0274,-0.0256,-0.0215,-0.01,-0.0055,0.0036,0.0081,0.0158,0.0176,0.0206,0.0153,0.0153,0.0127,0.0115,0.0067,0.0068,0.0,-0.0072,0.0006,0.0083,0.0082,0.0081,0.008,0.0079,0,-0.0384,-0.035,-0.032,-0.0304,-0.0235,-0.0169,-0.01,-0.0001,0.0043,0.017,0.0199,0.0277,0.0278,0.0281,0.0186,0.0198,0.0138,0.0137,0.0105,0.0103,0.0086,0.0077,0.0173,0.0173,0.0173,0.0172,0.0172,0,-0.0371,-0.0349,-0.0307,-0.0292,-0.021,-0.0138,-0.0034,0.0047,0.0138,0.0186,0.0271,0.0264,0.0295,0.0251,0.0227,0.0173,0.0186,0.0154,0.0127,0.0117,0.011,0.0096,0.0085,0.0177,0.0176,0.0175,0.0174,0,-0.037,-0.036,-0.0328,-0.0251,-0.0212,-0.014,-0.0021,0.0039,0.0136,0.0194,0.0232,0.0254,0.0249,0.0246,0.0209,0.019,0.0152,0.0128,0.0146,0.0111,0.0159,0.0151,0.0228,0.0227,0.0226,0.0225,0.0224,0,-0.0364,-0.0357,-0.0313,-0.0287,-0.0243,-0.0139,-0.0078,0.0038,0.0079,0.014,0.0138,0.017,0.0193,0.0135,0.011,0.0156,0.0122,0.0142,0.0177,0.0197,0.0164,0.0156,0.0149,0.0223,0.0223,0.0222,0.0222,0,-0.0358,-0.0362,-0.0342,-0.0301,-0.024,-0.0189,-0.009,-0.007,0.0043,0.0095,0.0111,0.0141,0.0126,0.0134,0.014,0.0133,0.0155,0.0135,0.014,0.0173,0.0192,0.0158,0.0152,0.0219,0.022,0.022,0.022,0,-0.0361,-0.0353,-0.0345,-0.029,-0.0257,-0.0227,-0.0172,-0.0102,-0.0045,0.0063,0.0023,0.0066,0.0101,0.0111,0.0064,0.0109,0.0176,0.0193,0.0197,0.02,0.012,0.0135,0.0152,0,0,0,0,0,-0.0352,-0.0342,-0.032,-0.0277,-0.0263,-0.023,-0.0186,-0.0141,-0.0059,-0.0019,0.0043,0.0057,0.0099,0.0051,0.0113,0.0043,0.0141,0.0106,0.0153,0.0202,0.0205,0.0105,0,0,0,0,0,0,-0.0345,-0.0341,-0.0325,-0.0291,-0.0255,-0.0231,-0.0207,-0.0158,-0.0122,-0.0035,-0.0018,0.0064,0.0083,0.0108,0.0121,0.0123,0.0153,0.0142,0.0142,0.02,0.0203,0.0206,0.0104,0,0,0,0,0]},{"header":{"parameterUnit":"m.s-1","parameterCategory":2,"la1":30.2991,"la2":30.254,"lo1":-89.0895,"lo2":-89.0444,"dy":0.0017,"dx":0.0017,"nx":28,"ny":28,"refTime":"2025-04-09T03:00:00:Z","depth":"4","parameterNumber":3,"parameterNumberName":"V-component_of_CURRENTS"},"data":[0,0,0,0,0,0,0,0,0,0,0,0,0,0,0,0,0,0,0,0,0,0,0,0,0,0,0,0,0,0,0,0,0,0,0,0,0,0,0,0,0,0,0,0,0,0,0,0,0,0,0,0,0,0,0,0,0,0,0.0304,0.0304,0,0.0335,0.0335,0.0335,0.0388,0.0389,0.039,0.0391,0.0436,0.0437,0.0437,0,0,0,0,0,0,0,0,0,0,0,0,0,0.028,0.0281,0.0304,0.0304,0.0305,0.0335,0.0335,0.0335,0.0388,0.0389,0.039,0.0391,0.0436,0.0437,0.0437,0,0,0,0,0,0,0,0,0,0,0,0,0,0.0299,0.0281,0.0304,0.0334,0.0337,0.0334,0.0335,0.0336,0.0388,0.0389,0.039,0.0392,0.0436,0.0437,0.0437,0.0411,0,0,0.0439,0.0439,0,0,0,0,0,0,0,0,0.0298,0.03,0.0329,0.0332,0.0335,0.0359,0.0344,0.0361,0.0387,0.0369,0.0391,0.0393,0.0411,0.0413,0.0416,0.0413,0.0415,0.0439,0.0439,0.0439,0.0439,0,0,0,0,0,0,0,0.0296,0.0299,0.0316,0.033,0.0333,0.0343,0.0347,0.0347,0.0382,0.037,0.0374,0.0377,0.0413,0.0415,0.0417,0.0416,0.0439,0.0439,0.0439,0.044,0.0407,0.0406,0,0,0,0,0,0,0.0291,0.0297,0.0315,0.0317,0.032,0.0342,0.0347,0.035,0.0381,0.0387,0.0376,0.0379,0.0414,0.0417,0.0419,0.0412,0.0439,0.044,0.044,0.0408,0.0406,0.0405,0,0,0,0,0,0,0.029,0.0292,0.0314,0.0308,0.0311,0.0341,0.0344,0.035,0.0382,0.0385,0.0392,0.0406,0.0415,0.0419,0.0435,0.0413,0.044,0.044,0.0409,0.0407,0.0406,0.0382,0,0,0,0,0,0,0.029,0.0292,0.0304,0.0307,0.0311,0.0328,0.0343,0.0349,0.038,0.0386,0.0412,0.0416,0.0417,0.0434,0.0435,0.0414,0.0441,0.0411,0.0408,0.0406,0.0385,0.038,0.0376,0,0,0,0,0,0.0289,0.0291,0.0304,0.0307,0.0323,0.0328,0.0331,0.0357,0.038,0.0393,0.0408,0.0417,0.042,0.0434,0.0436,0.0414,0.0412,0.0409,0.0406,0.0386,0.0381,0.0376,0,0,0,0,0,0,0.0283,0.0296,0.0311,0.0318,0.0331,0.0337,0.0351,0.037,0.0392,0.0405,0.0415,0.0419,0.042,0.0421,0.0436,0.0395,0.0412,0.0409,0.0396,0.0391,0.0387,0.0375,0.0441,0,0,0,0,0,0.0287,0.0297,0.0309,0.0316,0.0325,0.0345,0.0356,0.0372,0.0385,0.0399,0.0412,0.0415,0.0403,0.0405,0.0401,0.0388,0.0379,0.037,0.0365,0.0362,0.0351,0.0302,0.0293,0.0397,0.0397,0.0397,0,0,0.0288,0.0295,0.0304,0.0317,0.0331,0.0333,0.0356,0.0375,0.0372,0.0398,0.0406,0.041,0.0399,0.038,0.0378,0.0384,0.0333,0.0359,0.0356,0.0347,0.0299,0.0288,0.0279,0.0395,0.0395,0.0395,0,0,0.0282,0.0303,0.031,0.032,0.0341,0.0342,0.0354,0.0371,0.0381,0.0385,0.039,0.0382,0.0383,0.0355,0.0343,0.0311,0.0317,0.0313,0.0279,0.0232,0.0223,0.0215,0.0218,0.021,0.0306,0.0306,0.0305,0,0.0288,0.0295,0.0312,0.0317,0.0324,0.0348,0.0351,0.035,0.0369,0.0364,0.0387,0.0358,0.0358,0.0308,0.0295,0.03,0.0295,0.0303,0.0226,0.0218,0.021,0.0214,0.0206,0.0304,0.0304,0.0304,0.0305,0,0.028,0.0296,0.0299,0.031,0.0314,0.0326,0.0323,0.0328,0.0342,0.0336,0.0315,0.0306,0.0291,0.0275,0.0278,0.0214,0.0239,0.0232,0.0241,0.0198,0.0206,0.0198,0.0302,0.0303,0.0303,0.0303,0,0,0.0273,0.0293,0.03,0.0311,0.0318,0.0322,0.0302,0.029,0.0284,0.0278,0.0258,0.0219,0.0231,0.0216,0.0211,0.0158,0.011,0.0173,0.0171,0.018,0.0042,0.0096,0.0092,0.0091,0.0089,0.0087,0.0081,0,0.0272,0.0281,0.0285,0.0295,0.03,0.0305,0.0286,0.0273,0.0265,0.0249,0.0213,0.0212,0.0203,0.0216,0.0151,0.0113,0.0083,0.0115,0.0078,0.0078,0.0132,0.0081,0.008,0.0075,0.0073,0.0072,0.0071,0,0.026,0.0273,0.0287,0.0296,0.03,0.0314,0.0299,0.0287,0.0249,0.0246,0.0214,0.0206,0.0139,0.0153,0.0045,0.0069,0.0061,0.003,0.0029,0.0076,0.0114,0.0119,0.0056,0.0057,0.0059,0.006,0.006,0,0.0249,0.0268,0.0286,0.0294,0.0305,0.0322,0.0332,0.0303,0.0301,0.0273,0.0275,0.0186,0.0176,0.0098,0.0051,0.005,-0.0057,-0.0062,-0.0017,-0.0011,-0.0044,-0.0035,-0.0119,-0.0119,-0.0119,-0.0119,-0.0119,0,0.0243,0.0256,0.0304,0.0324,0.0353,0.0353,0.0378,0.0368,0.0358,0.0346,0.0305,0.026,0.016,0.0093,0.004,-0.0015,-0.0058,-0.0033,-0.0026,-0.0047,-0.004,-0.0047,-0.0039,-0.0119,-0.0119,-0.0119,-0.0119,0,0.0232,0.0258,0.0283,0.0332,0.036,0.039,0.0449,0.0447,0.0449,0.0433,0.0439,0.0322,0.0232,0.0161,0.004,0.0001,-0.0066,-0.0051,-0.0037,-0.0026,0.0019,0.0027,-0.0031,-0.003,-0.0028,-0.0027,-0.0027,0,0.0225,0.0243,0.0312,0.0357,0.0404,0.0461,0.0489,0.0503,0.0507,0.0447,0.0429,0.0357,0.0284,0.0143,0.0052,-0.0009,-0.0005,-0.0021,-0.0045,0.0007,0.002,0.0025,0.0031,-0.0025,-0.0024,-0.0024,-0.0024,0,0.0216,0.025,0.028,0.0378,0.0442,0.0491,0.055,0.0541,0.0527,0.054,0.0431,0.0355,0.0262,0.0131,0.013,0.0062,-0.0029,-0.0009,-0.0013,-0.0035,0.0015,0.0027,0.0031,-0.0019,-0.002,-0.002,-0.0021,0,0.0217,0.0236,0.0297,0.0381,0.0464,0.0505,0.0517,0.0522,0.0521,0.0477,0.0415,0.0313,0.0251,0.0169,0.0117,0.0106,0.0089,0.0062,0.0055,0.0049,0.0073,0.0147,0.0147,0,0,0,0,0,0.022,0.0245,0.0304,0.0377,0.0458,0.0526,0.0548,0.0542,0.0519,0.0465,0.0461,0.0381,0.0281,0.0184,0.0186,0.0136,0.0086,0.0134,0.0052,0.0004,-0.0001,0.0017,0,0,0,0,0,0,0.0219,0.0266,0.0284,0.0371,0.0443,0.0515,0.0534,0.0507,0.048,0.0453,0.0391,0.0403,0.03,0.0319,0.0199,0.0187,0.0133,0.0105,0.0105,0.0007,0.0002,-0.0002,0.0015,0,0,0,0,0]}]]